timestamp,surface_pressure_avg,surface_temp_avg,battery_voltage,lat,long
2020-07-11 00:09:01+00:00,239.9431,16.1,12.97,47.84626,-54.09684
2020-07-11 00:19:01+00:00,245.8364,16.09,12.73,47.84626,-54.09684
2020-07-11 00:29:01+00:00,249.6614,16.09,12.73,47.84626,-54.09684
2020-07-11 00:39:01+00:00,254.0781,16.0,12.73,47.84626,-54.09684
2020-07-11 00:49:01+00:00,259.9497,16.0,12.73,47.84626,-54.09684
2020-07-11 00:59:01+00:00,264.4981,15.9,12.73,47.84626,-54.09684
2020-07-11 01:09:01+00:00,268.4914,15.85,12.73,47.84626,-54.09684
2020-07-11 01:19:01+00:00,273.1213,15.8,12.73,47.84626,-54.09684
2020-07-11 01:29:01+00:00,278.2448,15.7,12.73,47.84626,-54.09684
2020-07-11 01:39:01+00:00,282.873,15.7,12.73,47.84626,-54.09684
2020-07-11 01:49:01+00:00,288.9947,15.77,12.73,47.84626,-54.09684
2020-07-11 01:59:01+00:00,297.6813,15.8,12.73,47.84626,-54.09684
2020-07-11 02:09:01+00:00,306.288,15.8,12.73,47.84626,-54.09684
2020-07-11 02:19:01+00:00,312.7096,15.8,12.73,47.84626,-54.09684
2020-07-11 02:29:01+00:00,317.5164,15.8,12.73,47.84626,-54.09684
2020-07-11 02:39:01+00:00,324.9697,15.75,12.73,47.84626,-54.09684
2020-07-11 02:49:01+00:00,328.7678,15.74,12.73,47.84626,-54.09684
2020-07-11 02:59:01+00:00,328.9380000000001,15.78,12.73,47.84626,-54.09684
2020-07-11 03:09:01+00:00,329.9779,15.79,12.73,47.84626,-54.09684
2020-07-11 03:19:01+00:00,332.6446,15.8,12.73,47.84626,-54.09684
2020-07-11 03:29:01+00:00,332.4046,15.9,12.73,47.84626,-54.09684
2020-07-11 03:39:01+00:00,330.8614,15.98,12.73,47.84626,-54.09684
2020-07-11 03:49:01+00:00,332.3597,15.99,12.73,47.84626,-54.09684
2020-07-11 03:59:01+00:00,333.3831,15.98,12.73,47.84626,-54.09684
2020-07-11 04:09:01+00:00,333.0197,16.0,12.73,47.84626,-54.09684
2020-07-11 04:19:01+00:00,332.6663,15.99,12.73,47.84626,-54.09684
2020-07-11 04:29:01+00:00,331.5546,15.99,12.73,47.84626,-54.09684
2020-07-11 04:39:01+00:00,327.8846,16.0,12.73,47.84626,-54.09684
2020-07-11 04:49:01+00:00,324.5063,16.0,12.73,47.84626,-54.09684
2020-07-11 04:59:01+00:00,321.873,16.0,12.73,47.84626,-54.09684
2020-07-11 05:09:01+00:00,319.653,16.0,12.73,47.84626,-54.09684
2020-07-11 05:19:01+00:00,314.8197,16.0,12.73,47.84626,-54.09684
2020-07-11 05:29:01+00:00,311.3214,16.0,12.73,47.84626,-54.09684
2020-07-11 05:39:01+00:00,307.133,16.0,12.73,47.84626,-54.09684
2020-07-11 05:49:01+00:00,304.0781,16.0,12.73,47.84626,-54.09684
2020-07-11 05:59:01+00:00,299.5214,15.99,12.73,47.84626,-54.09684
2020-07-11 06:09:01+00:00,293.9431,15.99,12.73,47.84626,-54.09684
2020-07-11 06:19:01+00:00,289.603,15.99,12.65,47.84626,-54.09684
2020-07-11 06:29:01+00:00,285.443,15.99,12.65,47.84626,-54.09684
2020-07-11 06:39:01+00:00,279.533,15.98,12.65,47.84626,-54.09684
2020-07-11 06:49:01+00:00,270.3114,15.98,12.65,47.84626,-54.09684
2020-07-11 06:59:01+00:00,262.6714,15.98,12.65,47.84626,-54.09684
2020-07-11 07:09:01+00:00,258.0147,15.99,12.65,47.84626,-54.09684
2020-07-11 07:19:01+00:00,252.8314,16.0,12.65,47.84626,-54.09684
2020-07-11 07:29:01+00:00,245.8348,16.0,12.65,47.84626,-54.09684
2020-07-11 07:39:01+00:00,237.5864,16.0,12.65,47.84626,-54.09684
2020-07-11 07:49:01+00:00,233.0181,15.98,12.65,47.84626,-54.09684
2020-07-11 07:59:01+00:00,225.9964,15.99,12.65,47.84626,-54.09684
2020-07-11 08:09:01+00:00,216.3314,15.99,12.65,47.84626,-54.09684
2020-07-11 08:19:01+00:00,211.9898,16.0,12.65,47.84626,-54.09684
2020-07-11 08:29:01+00:00,210.6181,16.0,12.65,47.84626,-54.09684
2020-07-11 08:39:01+00:00,205.0915,16.0,12.65,47.84626,-54.09684
2020-07-11 08:49:01+00:00,196.8098,16.1,12.65,47.84626,-54.09684
2020-07-11 08:59:01+00:00,192.9531,16.1,12.65,47.84626,-54.09684
2020-07-11 09:09:01+00:00,193.3581,16.1,12.65,47.84626,-54.09684
2020-07-11 09:19:01+00:00,192.2648,16.16,12.65,47.84626,-54.09684
2020-07-11 09:29:01+00:00,190.4848,16.18,12.65,47.84626,-54.09684
2020-07-11 09:39:01+00:00,190.1214,16.1,12.65,47.84626,-54.09684
2020-07-11 09:49:01+00:00,192.6098,16.02,12.65,47.84626,-54.09684
2020-07-11 09:59:01+00:00,196.7181,16.0,12.65,47.84626,-54.09684
2020-07-11 10:09:01+00:00,199.6348,16.0,12.65,47.84626,-54.09684
2020-07-11 10:19:01+00:00,200.6314,16.01,12.65,47.84626,-54.09684
2020-07-11 10:29:01+00:00,203.7464,16.08,12.65,47.84626,-54.09684
2020-07-11 10:39:01+00:00,208.8831,16.0,12.65,47.84626,-54.09684
2020-07-11 10:49:01+00:00,211.7098,16.0,12.65,47.84626,-54.09684
2020-07-11 10:59:01+00:00,213.1231,15.92,12.65,47.84626,-54.09684
2020-07-11 11:09:01+00:00,215.9064,15.9,12.65,47.84626,-54.09684
2020-07-11 11:19:01+00:00,220.2931,15.9,12.89,47.84626,-54.09684
2020-07-11 11:29:01+00:00,223.1714,15.9,12.89,47.84626,-54.09684
2020-07-11 11:39:01+00:00,224.2564,15.9,12.89,47.84626,-54.09684
2020-07-11 11:49:01+00:00,228.4348,15.9,12.89,47.84626,-54.09684
2020-07-11 11:59:01+00:00,231.573,15.9,12.89,47.84626,-54.09684
2020-07-11 12:09:01+00:00,231.8081,15.95,12.89,47.84626,-54.09684
2020-07-11 12:19:01+00:00,232.8614,15.99,13.21,47.84626,-54.09684
2020-07-11 12:29:01+00:00,236.8614,15.99,13.21,47.84626,-54.09684
2020-07-11 12:39:01+00:00,242.2615,15.99,13.21,47.84626,-54.09684
2020-07-11 12:49:01+00:00,245.0747,16.0,13.21,47.84626,-54.09684
2020-07-11 12:59:01+00:00,247.7664,16.0,13.21,47.84626,-54.09684
2020-07-11 13:09:01+00:00,253.2314,15.99,13.21,47.84626,-54.09684
2020-07-11 13:19:01+00:00,259.578,15.9,13.53,47.84626,-54.09684
2020-07-11 13:29:01+00:00,263.3181,15.91,13.53,47.84626,-54.09684
2020-07-11 13:39:01+00:00,264.8997,15.9,13.53,47.84626,-54.09684
2020-07-11 13:49:01+00:00,270.1731,15.64,13.53,47.84626,-54.09684
2020-07-11 13:59:01+00:00,276.238,15.65,13.53,47.84626,-54.09684
2020-07-11 14:09:01+00:00,280.7797,15.31,13.53,47.84626,-54.09684
2020-07-11 14:19:01+00:00,285.4597,15.1,14.0,47.84626,-54.09684
2020-07-11 14:29:01+00:00,292.4313,14.83,14.0,47.84626,-54.09684
2020-07-11 14:39:01+00:00,296.8014,14.57,14.0,47.84626,-54.09684
2020-07-11 14:49:01+00:00,298.4581,14.65,14.0,47.84626,-54.09684
2020-07-11 14:59:01+00:00,302.4397,14.53,14.0,47.84626,-54.09684
2020-07-11 15:09:01+00:00,306.4797,14.44,14.0,47.84626,-54.09684
2020-07-11 15:19:01+00:00,305.4197,14.96,14.4,47.84626,-54.09684
2020-07-11 15:29:01+00:00,302.6164,14.88,14.4,47.84626,-54.09684
2020-07-11 15:39:01+00:00,306.343,14.3,14.4,47.84626,-54.09684
2020-07-11 15:49:01+00:00,306.7047,15.32,14.4,47.84626,-54.09684
2020-07-11 15:59:01+00:00,301.6097,15.89,14.4,47.84626,-54.09684
2020-07-11 16:09:01+00:00,302.3231,14.75,14.4,47.84626,-54.09684
2020-07-11 16:19:01+00:00,309.1448,14.38,14.32,47.84626,-54.09684
2020-07-11 16:29:01+00:00,308.2513,15.4,14.32,47.84626,-54.09684
2020-07-11 16:39:01+00:00,302.5648,15.4,14.32,47.84626,-54.09684
2020-07-11 16:49:01+00:00,306.9263,14.57,14.32,47.84626,-54.09684
2020-07-11 16:59:01+00:00,307.7414,14.57,14.32,47.84626,-54.09684
2020-07-11 17:09:01+00:00,300.3897,15.53,14.32,47.84626,-54.09684
2020-07-11 17:19:01+00:00,300.0497,15.18,14.16,47.84626,-54.09684
2020-07-11 17:29:01+00:00,303.6247,14.33,14.16,47.84626,-54.09684
2020-07-11 17:39:01+00:00,298.6713,15.42,14.16,47.84626,-54.09684
2020-07-11 17:49:01+00:00,291.7497,15.9,14.16,47.84626,-54.09684
2020-07-11 17:59:01+00:00,293.0847,14.98,14.16,47.84626,-54.09684
2020-07-11 18:09:01+00:00,291.2297,14.77,14.16,47.84626,-54.09684
2020-07-11 18:19:01+00:00,283.7581,15.96,14.0,47.84626,-54.09684
2020-07-11 18:29:01+00:00,281.6114,15.74,14.0,47.84626,-54.09684
2020-07-11 18:39:01+00:00,282.6697,14.6,14.0,47.84626,-54.09684
2020-07-11 18:49:01+00:00,275.2181,15.45,14.0,47.84626,-54.09684
2020-07-11 18:59:01+00:00,267.7564,15.98,14.0,47.84626,-54.09684
2020-07-11 19:09:01+00:00,266.8681,15.5,14.0,47.84626,-54.09684
2020-07-11 19:19:01+00:00,260.9414,14.74,13.92,47.84626,-54.09684
2020-07-11 19:29:01+00:00,248.8164,15.22,13.92,47.84626,-54.09684
2020-07-11 19:39:01+00:00,244.5364,15.38,13.92,47.84626,-54.09684
2020-07-11 19:49:01+00:00,242.6931,15.3,13.92,47.84626,-54.09684
2020-07-11 19:59:01+00:00,233.5414,15.25,13.92,47.84626,-54.09684
2020-07-11 20:09:01+00:00,225.0681,15.72,13.92,47.84626,-54.09684
2020-07-11 20:19:01+00:00,226.5697,15.8,13.84,47.84626,-54.09684
2020-07-11 20:29:01+00:00,221.8131,15.6,13.84,47.84626,-54.09684
2020-07-11 20:39:01+00:00,210.7914,15.77,13.84,47.84626,-54.09684
2020-07-11 20:49:01+00:00,208.1431,15.8,13.84,47.84626,-54.09684
2020-07-11 20:59:01+00:00,210.2331,15.7,13.84,47.84626,-54.09684
2020-07-11 21:09:01+00:00,202.9415,15.4,13.84,47.84626,-54.09684
2020-07-11 21:19:01+00:00,195.6564,15.6,13.84,47.84626,-54.09684
2020-07-11 21:29:01+00:00,197.1315,15.6,13.84,47.84626,-54.09684
2020-07-11 21:39:01+00:00,198.9165,15.65,13.84,47.84626,-54.09684
2020-07-11 21:49:01+00:00,195.4865,15.7,13.84,47.84626,-54.09684
2020-07-11 21:59:01+00:00,194.3648,15.78,13.84,47.84626,-54.09684
2020-07-11 22:09:01+00:00,199.1015,15.92,13.84,47.84626,-54.09684
2020-07-11 22:19:01+00:00,201.1564,16.04,13.44,47.84626,-54.09684
2020-07-11 22:29:01+00:00,200.5448,16.1,13.44,47.84626,-54.09684
2020-07-11 22:39:01+00:00,204.5431,16.2,13.44,47.84626,-54.09684
2020-07-11 22:49:01+00:00,209.3365,16.29,13.44,47.84626,-54.09684
2020-07-11 22:59:01+00:00,209.8981,16.39,13.44,47.84626,-54.09684
2020-07-11 23:09:01+00:00,210.0914,16.4,13.44,47.84626,-54.09684
2020-07-11 23:19:01+00:00,216.1731,16.4,13.13,47.84626,-54.09684
2020-07-11 23:29:01+00:00,220.2848,16.39,13.13,47.84626,-54.09684
2020-07-11 23:39:01+00:00,220.2147,16.38,13.13,47.84626,-54.09684
2020-07-11 23:49:01+00:00,221.9131,16.35,13.13,47.84626,-54.09684
2020-07-11 23:59:01+00:00,224.3747,16.35,13.13,47.84626,-54.09684
